World > North America > United States > Washington

Tacoma, Washington Regional Weather

Lat: 47.25N, Lon: 122.44W
Wx Zone: WAZ509
Feedback

Tacoma, WA Regional Weather

Expires:202007142100;;849581
ASUS46 KSEW 142020
RWRWA 

WASHINGTON REGIONAL WEATHER ROUNDUP
NATIONAL WEATHER SERVICE SEATTLE WA
100 PM PDT TUE JUL 14 2020

NOTE:"FAIR" INDICATES FEW OR NO CLOUDS BELOW 12,000 FEET WITH NO 
SIGNIFICANT WEATHER AND/OR OBSTRUCTIONS TO VISIBILITY.


WAZ507-509-555>559-142100-
SEATTLE, TACOMA, EVERETT, AND VICINITY
  
CITY           SKY/WX    TMP DP  RH WIND       PRES   REMARKS
EVERETT        SUNNY     70  55  59 W6        30.20S                  
BOEING FIELD   SUNNY     74  49  41 NW8       30.17F                  
RENTON         SUNNY     74  50  42 NW9       30.17S                  
SEATAC AIRPORT MOSUNNY   75  49  39 N9        30.18F                  
JBLM-MCCHORD   SUNNY     75  46  35 N10       30.18S                  
PUYALLUP       FAIR      75  50  41 NW8G15    30.18S                  
BREMERTON      SUNNY     74  53  48 E8        30.18F                  
JBLM-FT LEWIS  SUNNY     75  56  51 NW8       30.17S                  
TACOMA NARROWS SUNNY     71  48  43 NE9G17    30.18F                  
$$
 

SKY/WX - Weather  TMP - Temperature  DP - Dew Point  RH - Relative Humidity
WIND - Wind Direction/Speed PRES - Barometric Pressure VSB - Visibility
WCI - Wind Chill Index E13G22 Wind - East Wind 13 mph/Gusts of 22 mph
Tacoma Weather Map
UTC Time: 7/14/2020, 20:47
Your Time: